[[{"header":{"parameterUnit":"m.s-1","parameterCategory":1,"la1":30.2991,"la2":30.254,"lo1":-89.0895,"lo2":-89.0444,"dy":0.0017,"dx":0.0017,"nx":28,"ny":28,"refTime":"2024-03-16T03:00:00:Z","depth":0,"parameterNumber":2,"parameterNumberName":"U-component_of_WINDS"},"data":[0,0,0,0,0,0,0,0,0,0,0,0,0,0,0,0,0,0,0,0,0,0,0,0,0,0,0,0,0,0,0,0,0,0,0,0,0,0,0,0,0,0,0,0,0,0,0,0,0,0,0,0,0,0,0,0,0,0,0.4008,0.4009,0,0.4037,0.4037,0.4038,0.4038,0.4037,0.4037,0.4037,0.4066,0.4067,0.4068,0,0,0,0,0,0,0,0,0,0,0,0,0,0.3954,0.3955,0.4008,0.4009,0.4009,0.4037,0.4037,0.4038,0.4038,0.4037,0.4037,0.4037,0.4065,0.4067,0.4068,0,0,0,0,0,0,0,0,0,0,0,0,0,0.398,0.3955,0.4008,0.4012,0.4013,0.4037,0.4037,0.4038,0.4038,0.4037,0.4037,0.4036,0.4065,0.4066,0.4068,0.4089,0,0,0.4073,0.4074,0,0,0,0,0,0,0,0,0.3978,0.3982,0.4012,0.4012,0.4013,0.4033,0.4029,0.4055,0.4038,0.4028,0.4037,0.4036,0.4055,0.4058,0.4064,0.4091,0.4092,0.4073,0.4074,0.4075,0.4076,0,0,0,0,0,0,0,0.3976,0.398,0.402,0.4012,0.4013,0.4013,0.4016,0.4034,0.4045,0.4029,0.4029,0.4033,0.4056,0.4063,0.4065,0.4092,0.4073,0.4075,0.4076,0.4076,0.4139,0.414,0,0,0,0,0,0,0.3974,0.3979,0.4019,0.4021,0.3994,0.4014,0.4018,0.4027,0.4044,0.4047,0.4033,0.4033,0.406,0.4063,0.4066,0.4093,0.4075,0.4077,0.4078,0.4138,0.4139,0.414,0,0,0,0,0,0,0.3973,0.3977,0.4018,0.4,0.4005,0.4016,0.4027,0.4028,0.4035,0.4047,0.4049,0.4038,0.406,0.4064,0.4084,0.4094,0.4077,0.4079,0.4138,0.4139,0.4139,0.4146,0,0,0,0,0,0,0.3971,0.3977,0.3985,0.4,0.4006,0.4035,0.4027,0.4029,0.4038,0.4038,0.4053,0.4055,0.406,0.4081,0.4086,0.4096,0.408,0.4137,0.4138,0.4139,0.4145,0.4147,0.4149,0,0,0,0,0,0.3969,0.3985,0.3985,0.399,0.4016,0.4036,0.4039,0.4044,0.4039,0.4047,0.4055,0.4054,0.4092,0.4083,0.4088,0.4099,0.4136,0.4138,0.4139,0.4144,0.4147,0.4149,0,0,0,0,0,0,0.3971,0.3987,0.3988,0.4009,0.4021,0.4035,0.4046,0.4047,0.406,0.4059,0.4065,0.4068,0.4089,0.4096,0.4086,0.4121,0.4113,0.4116,0.4116,0.4118,0.412,0.4118,0.4082,0,0,0,0,0,0.3974,0.3988,0.4002,0.402,0.4026,0.4035,0.4044,0.4047,0.4059,0.4064,0.4073,0.4085,0.41,0.411,0.4124,0.4146,0.415,0.4156,0.4158,0.416,0.4162,0.4175,0.4178,0.4145,0.4145,0.4145,0,0,0.398,0.3991,0.4,0.402,0.403,0.4045,0.4039,0.4055,0.4066,0.4066,0.4086,0.4094,0.4107,0.4129,0.4139,0.4136,0.4172,0.4161,0.4163,0.4164,0.4177,0.418,0.4183,0.4146,0.4145,0.4145,0,0,0.3999,0.4009,0.4025,0.4035,0.405,0.4056,0.406,0.4074,0.4079,0.41,0.41,0.4114,0.4138,0.4149,0.4157,0.4181,0.4181,0.4185,0.4196,0.4209,0.4212,0.4214,0.4223,0.4226,0.4187,0.4187,0.4187,0,0.4005,0.4028,0.4033,0.405,0.4059,0.406,0.4077,0.4086,0.4105,0.4111,0.4107,0.4139,0.4148,0.4173,0.4179,0.4185,0.419,0.4184,0.4211,0.4213,0.4216,0.4224,0.4228,0.4188,0.4188,0.4188,0.4188,0,0.4035,0.4051,0.4062,0.408,0.4091,0.4107,0.4116,0.4126,0.4128,0.4135,0.4156,0.4167,0.4184,0.419,0.4192,0.4215,0.4213,0.4209,0.4202,0.4219,0.4228,0.4231,0.4189,0.4188,0.4188,0.4188,0,0,0.4056,0.4078,0.4082,0.4091,0.4107,0.4119,0.4136,0.4153,0.4162,0.4174,0.4189,0.421,0.4208,0.4217,0.4221,0.4232,0.4251,0.4228,0.4228,0.4232,0.4278,0.4281,0.4285,0.4251,0.4252,0.4253,0.4278,0,0.4077,0.4107,0.4113,0.4139,0.4154,0.4156,0.4171,0.4183,0.4189,0.4203,0.4211,0.4226,0.4221,0.4227,0.4238,0.4247,0.4261,0.4245,0.4265,0.4266,0.4262,0.4289,0.4292,0.4315,0.4281,0.4281,0.4282,0,0.4106,0.4121,0.4148,0.4164,0.417,0.4183,0.42,0.4213,0.4226,0.4231,0.4242,0.4244,0.4262,0.4253,0.4278,0.4267,0.4276,0.4281,0.4282,0.4285,0.4275,0.4293,0.4322,0.4326,0.4287,0.4286,0.4286,0,0.412,0.4146,0.4166,0.4173,0.4192,0.4201,0.4209,0.4222,0.4232,0.4246,0.4253,0.4269,0.4278,0.429,0.4297,0.429,0.4322,0.4313,0.4326,0.4326,0.4333,0.4333,0.4365,0.4338,0.4338,0.4337,0.4337,0,0.4144,0.4161,0.4173,0.4185,0.4204,0.4211,0.423,0.4238,0.425,0.4264,0.4266,0.4279,0.4287,0.4302,0.4307,0.4328,0.4331,0.4336,0.4337,0.4336,0.4335,0.4342,0.4341,0.4338,0.4338,0.4338,0.4338,0,0.4162,0.4171,0.4193,0.4209,0.4213,0.4227,0.424,0.4253,0.426,0.4278,0.4282,0.4293,0.4311,0.4319,0.434,0.4344,0.4367,0.4367,0.4362,0.4363,0.4376,0.4375,0.4413,0.4419,0.4388,0.4388,0.4388,0,0.4177,0.419,0.4208,0.4218,0.4226,0.4242,0.4252,0.4259,0.427,0.4287,0.4298,0.4315,0.433,0.4357,0.4367,0.4384,0.4384,0.4397,0.4387,0.4386,0.4386,0.4385,0.4387,0.4399,0.4399,0.4399,0.44,0,0.4203,0.4206,0.4221,0.4238,0.4251,0.4264,0.4278,0.4285,0.4295,0.4307,0.4325,0.4336,0.4358,0.4376,0.4393,0.4401,0.4402,0.4403,0.4407,0.4406,0.4403,0.4406,0.4368,0.4402,0.4402,0.4402,0.4401,0.4401,0.422,0.4233,0.4247,0.4264,0.4275,0.4287,0.43,0.4309,0.4324,0.4343,0.4346,0.4366,0.438,0.4403,0.4412,0.4428,0.4425,0.443,0.4432,0.4433,0.4434,0.44,0.4431,0.4431,0.443,0.443,0.443,0,0.4247,0.4256,0.4272,0.4291,0.4304,0.4304,0.4319,0.433,0.4347,0.436,0.4375,0.4396,0.4413,0.4425,0.4442,0.4452,0.4453,0.4457,0.4456,0.4459,0.4435,0.4431,0.4456,0.4456,0.4456,0.4456,0.4456,0.4456,0.4262,0.4283,0.4289,0.4316,0.4325,0.4344,0.4353,0.4365,0.4375,0.4399,0.4413,0.4421,0.4434,0.4452,0.4468,0.4471,0.4478,0.4482,0.4485,0.4463,0.446,0.4458,0.4453,0.4483,0.4483,0.4507,0.4507,0.4507]},{"header":{"parameterUnit":"m.s-1","parameterCategory":1,"la1":30.2991,"la2":30.254,"lo1":-89.0895,"lo2":-89.0444,"dy":0.0017,"dx":0.0017,"nx":28,"ny":28,"refTime":"2024-03-16T03:00:00:Z","depth":0,"parameterNumber":3,"parameterNumberName":"V-component_of_WINDS"},"data":[0,0,0,0,0,0,0,0,0,0,0,0,0,0,0,0,0,0,0,0,0,0,0,0,0,0,0,0,0,0,0,0,0,0,0,0,0,0,0,0,0,0,0,0,0,0,0,0,0,0,0,0,0,0,0,0,0,0,0.5208,0.5208,0,0.5227,0.5227,0.5228,0.5224,0.5224,0.5223,0.5223,0.524,0.5241,0.5242,0,0,0,0,0,0,0,0,0,0,0,0,0,0.5166,0.5167,0.5208,0.5208,0.5209,0.5227,0.5227,0.5228,0.5224,0.5224,0.5223,0.5223,0.524,0.5241,0.5242,0,0,0,0,0,0,0,0,0,0,0,0,0,0.5185,0.5167,0.5208,0.5209,0.5209,0.5227,0.5227,0.5228,0.5224,0.5224,0.5223,0.5223,0.524,0.5241,0.5242,0.5259,0,0,0.5245,0.5246,0,0,0,0,0,0,0,0,0.5184,0.5186,0.5209,0.5209,0.5209,0.5223,0.5219,0.5238,0.5224,0.5218,0.5223,0.5222,0.5235,0.5236,0.5241,0.526,0.5261,0.5245,0.5246,0.5247,0.5247,0,0,0,0,0,0,0,0.5182,0.5185,0.5216,0.5209,0.5209,0.5208,0.521,0.5223,0.5229,0.5219,0.5219,0.5221,0.5235,0.524,0.5241,0.5261,0.5245,0.5246,0.5247,0.5248,0.5295,0.5296,0,0,0,0,0,0,0.5181,0.5184,0.5215,0.5216,0.5195,0.5209,0.5211,0.5219,0.5229,0.523,0.5222,0.5221,0.5238,0.524,0.5242,0.5263,0.5247,0.5248,0.5248,0.5295,0.5296,0.5296,0,0,0,0,0,0,0.518,0.5184,0.5214,0.52,0.5204,0.521,0.5219,0.522,0.5225,0.5231,0.5232,0.5226,0.5238,0.524,0.5255,0.5264,0.5248,0.5249,0.5294,0.5295,0.5296,0.5306,0,0,0,0,0,0,0.5179,0.5184,0.5191,0.52,0.5205,0.5228,0.5219,0.522,0.5227,0.5226,0.5235,0.5236,0.5237,0.5253,0.5256,0.5265,0.525,0.5293,0.5295,0.5296,0.5305,0.5307,0.5309,0,0,0,0,0,0.5178,0.5192,0.5191,0.5195,0.5214,0.5228,0.5231,0.5233,0.5228,0.5235,0.5239,0.5236,0.5262,0.5255,0.5258,0.5267,0.5293,0.5294,0.5296,0.5304,0.5307,0.5309,0,0,0,0,0,0,0.5182,0.5193,0.5192,0.5211,0.5219,0.5228,0.5237,0.5235,0.5245,0.5244,0.5245,0.5247,0.5262,0.5266,0.5258,0.5285,0.5277,0.5279,0.5282,0.5285,0.5287,0.5286,0.5251,0,0,0,0,0,0.5186,0.5197,0.5206,0.5221,0.5225,0.523,0.5237,0.5238,0.5246,0.5249,0.5254,0.5261,0.5271,0.5278,0.5287,0.5305,0.5307,0.5313,0.5315,0.5317,0.5319,0.5329,0.5332,0.5301,0.5301,0.53,0,0,0.5192,0.52,0.5207,0.5222,0.5229,0.524,0.5233,0.5246,0.5254,0.525,0.5266,0.527,0.5278,0.5294,0.5302,0.5298,0.5328,0.5318,0.532,0.5321,0.5331,0.5334,0.5336,0.5301,0.5301,0.5301,0,0,0.5211,0.5218,0.5232,0.5238,0.5248,0.5252,0.5255,0.5264,0.5267,0.5282,0.528,0.529,0.5307,0.5313,0.5318,0.5339,0.5337,0.5342,0.5353,0.5363,0.5366,0.5368,0.5376,0.5379,0.5344,0.5344,0.5344,0,0.5218,0.5236,0.5239,0.5252,0.5259,0.5257,0.5271,0.5276,0.5289,0.5293,0.5289,0.5311,0.5316,0.5335,0.534,0.5344,0.5348,0.5342,0.5365,0.5367,0.537,0.5378,0.5381,0.5345,0.5345,0.5344,0.5344,0,0.5245,0.5257,0.5267,0.5281,0.5288,0.5301,0.5305,0.5313,0.5313,0.5316,0.5332,0.5338,0.5349,0.5353,0.5353,0.5372,0.5369,0.5365,0.5357,0.5373,0.5381,0.5384,0.5346,0.5345,0.5345,0.5345,0,0,0.5267,0.5282,0.5286,0.5292,0.5303,0.5313,0.5325,0.5337,0.5344,0.5352,0.5363,0.5378,0.5374,0.538,0.538,0.5389,0.5407,0.5384,0.5384,0.5389,0.5428,0.5433,0.5436,0.5405,0.5405,0.5406,0.5428,0,0.5288,0.5312,0.5315,0.5336,0.5348,0.5346,0.5358,0.5365,0.5369,0.5379,0.5382,0.5393,0.5387,0.539,0.5399,0.5403,0.5415,0.5401,0.5415,0.5416,0.5415,0.544,0.5444,0.5465,0.5431,0.5431,0.5432,0,0.5315,0.5326,0.5349,0.5359,0.5364,0.5374,0.5386,0.5395,0.5403,0.5405,0.5412,0.5412,0.5425,0.5415,0.5433,0.5424,0.543,0.5432,0.5433,0.5436,0.5426,0.5444,0.5472,0.5476,0.5436,0.5436,0.5436,0,0.5331,0.5351,0.5367,0.5373,0.5384,0.5392,0.5397,0.5405,0.5412,0.5421,0.5426,0.5436,0.5442,0.5449,0.5451,0.5444,0.547,0.546,0.5472,0.5472,0.5478,0.5478,0.5509,0.548,0.548,0.548,0.548,0,0.5355,0.5369,0.5375,0.5385,0.5401,0.5403,0.5419,0.5423,0.543,0.5441,0.5439,0.5449,0.5451,0.5461,0.5462,0.5477,0.5479,0.5481,0.5482,0.5482,0.5482,0.5487,0.5486,0.548,0.548,0.548,0.548,0,0.5375,0.538,0.5398,0.5408,0.5411,0.5422,0.543,0.544,0.5443,0.5457,0.546,0.5465,0.5476,0.5479,0.5492,0.5493,0.5512,0.551,0.5509,0.551,0.5521,0.5521,0.5557,0.5562,0.5529,0.5529,0.553,0,0.5391,0.5402,0.5413,0.5421,0.5427,0.5439,0.5446,0.5448,0.5456,0.5467,0.5475,0.5487,0.5497,0.5516,0.552,0.5531,0.553,0.5542,0.5531,0.5532,0.5531,0.5531,0.5533,0.5544,0.5544,0.5545,0.5545,0,0.5418,0.542,0.5431,0.5444,0.5453,0.5462,0.5471,0.5477,0.5481,0.5489,0.5502,0.551,0.5524,0.5536,0.5547,0.5551,0.5549,0.5548,0.5552,0.5553,0.5553,0.5554,0.5516,0.5548,0.5547,0.5547,0.5547,0.5547,0.5437,0.5448,0.5458,0.5471,0.5478,0.5486,0.5496,0.5501,0.5512,0.5525,0.5525,0.5539,0.5547,0.5561,0.5566,0.5576,0.5573,0.5577,0.5579,0.558,0.5582,0.555,0.5578,0.5578,0.5578,0.5578,0.5578,0,0.5466,0.5472,0.5484,0.5497,0.5507,0.5505,0.5514,0.5523,0.5536,0.5544,0.5554,0.5568,0.558,0.5585,0.5596,0.5604,0.5603,0.5607,0.5607,0.5608,0.5584,0.5581,0.5607,0.5607,0.5607,0.5607,0.5607,0.5607,0.5482,0.5499,0.5502,0.5523,0.5529,0.5544,0.555,0.5558,0.5564,0.5581,0.5591,0.5594,0.5601,0.5613,0.5623,0.5624,0.5629,0.5634,0.5634,0.5612,0.5609,0.5607,0.5604,0.5634,0.5634,0.5658,0.5658,0.5658]}]]